Regional Weather Roundup
Issued by NWS

Home | Current Version | Previous Version | Text Only | Print | Product List | Glossary On
Versions: 1 2 3 4 5 6 7 8 9 10 11 12 13 14 15 16 17 18 19 20 21 22 23 24 25 26 27 28 29 30 31 32 33 34 35 36 37 38 39 40 41 42 43 44 45 46 47 48
000
ASUS43 KDMX 140907
RWRIA

WEATHER ROUNDUP FOR IOWA
NATIONAL WEATHER SERVICE DES MOINES IA
400 AM CDT SUN SEP 14 2014

NOTE: "FAIR" INDICATES FEW OR NO CLOUDS BELOW 12,000 FEET WITH NO
SIGNIFICANT WEATHER AND/OR OBSTRUCTIONS TO VISIBILITY.

* - THESE STATIONS ARE NOT NWS STATIONS...THUS NOT UNDER NWS
QUALITY CONTROL.  THEY ALSO DO NOT REPORT WEATHER SUCH
AS PRECIPITATION OR FOG.

IAZ001>003-012>014-020>022-031>034-043>046-141000-
   NORTHWEST IOWA

CITY           SKY/WX    TMP DP  RH WIND       PRES   REMARKS
CARROLL *      PTCLDY    46  43  87 SW7       30.21S
CHEROKEE *     CLEAR     43  43 100 S3        30.18S
DENISON *      MOCLDY    46  45  93 SW3       30.19S
LE MARS *        N/A     45  43  93 CALM      30.18S
ORANGE CITY *  CLEAR     45  41  87 S7        30.17S
SHELDON *      CLEAR     45  43  93 S7        30.15S
SIOUX CITY     CLEAR     46  43  89 SE5       30.19S
SPENCER        CLEAR     43  41  93 S5        30.17S
STORM LAKE *   CLEAR     45  45 100 S7        30.18F
$$

IAZ055>058-069>071-079>083-090>094-141000-
   SOUTHWEST IOWA

CITY           SKY/WX    TMP DP  RH WIND       PRES   REMARKS
ATLANTIC *     CLOUDY    50  45  81 S7        30.22S
AUDUBON *      MOCLDY    48  46  93 CALM      30.23S
CLARINDA *     CLOUDY    50  50 100 CALM      30.25S
COUNCIL BLFS * CLOUDY    52  48  87 S6        30.21S
CRESTON *      CLOUDY    48  45  87 S6        30.24S
HARLAN  *      CLOUDY    46  46 100 CALM      30.25S
LAMONI         CLOUDY    48  43  82 S6        30.25F
SHENANDOAH *     N/A     54  46  76 CALM      30.24S
$$

IAZ047>049-059>061-072>074-084-141000-
   CENTRAL IOWA

CITY           SKY/WX    TMP DP  RH WIND       PRES   REMARKS
AMES           CLOUDY    47  46  97 SE3       30.23F
ANKENY *       CLOUDY    48  46  93 S5        30.24F
CHARITON *     CLOUDY    46  43  87 S9        30.26S
DES MOINES     CLOUDY    50  44  80 S8        30.25S
GRINNELL*      CLOUDY    46  43  87 S5        30.26F
KNOXVILLE *    CLOUDY    46  43  87 S7        30.25S
MARSHALLTOWN   CLOUDY    48  44  86 SE7       30.24F
PELLA *        MOCLDY    45  43  93 SE3       30.27F
PERRY *        CLOUDY    48  46  93 S5        30.22F
$$

IAZ004>006-015-016-023>025-035-036-141000-
   NORTH CENTRAL IOWA

CITY           SKY/WX    TMP DP  RH WIND       PRES   REMARKS
ALGONA *       MOCLDY    48  45  87 S8        30.19S
CLARION *        N/A     48  45  87 S9        30.21S
ESTHERVILLE    CLEAR     43  41  93 S8        30.16F
FORT DODGE *   CLOUDY    50  43  76 S8        30.21S
MASON CITY     CLOUDY    48  44  86 S8        30.22S
FOREST CITY *  CLOUDY    50  45  81 S7        30.19F
IOWA FALLS *   CLOUDY    48  45  87 S6        30.24S
$$

IAZ007>011-017>019-026>030-037>042-050>054-066-141000-
   NORTHEAST IOWA

CITY           SKY/WX    TMP DP  RH WIND       PRES   REMARKS
CEDAR RAPIDS   CLEAR     41  40  96 SE5       30.27F
CHARLES CITY * CLOUDY    46  43  87 VRB6      30.23F
CLINTON *      CLEAR     39  36  87 S3        30.33S
DECORAH *      CLOUDY    45  39  81 S7        30.23F
DUBUQUE        CLOUDY    42  38  85 S3        30.29F
MONTICELLO *   CLOUDY    43  41  93 CALM      30.29S
OELWEIN *      CLOUDY    43  41  93 S7        30.26F
WATERLOO       CLOUDY    48  42  80 S7        30.24F
$$

IAZ064-065-067-068-078-141000-
   EAST CENTRAL IOWA

CITY           SKY/WX    TMP DP  RH WIND       PRES   REMARKS
DAVENPORT      CLEAR     40  37  89 S3        30.31S
IOWA CITY      CLEAR     41  40  96 CALM      30.30F
MT. PLEASANT * CLEAR     39  37  93 SE3       30.30F
MUSCATINE *    CLEAR     41  39  93 CALM      30.31S
QUAD CITIES    CLEAR     39  37  92 CALM      30.31F
$$

IAZ062-063-075>077-085>089-095>099-141000-
   SOUTHEAST IOWA

CITY           SKY/WX    TMP DP  RH WIND       PRES   REMARKS
BURLINGTON     CLEAR     42  41  96 CALM      30.30F
FAIRFIELD *    CLEAR     41  37  87 SE3       30.29F
FORT MADISON * CLEAR     43  41  93 CALM      30.31S
KEOKUK *       FOG       43  43 100 CALM      30.30S VSB 1/2
OSKALOOSA *      N/A     41  39  93 S6        30.28S
CENTERVILLE *  PTCLDY    41  41 100 S5        30.29S
OTTUMWA        CLEAR     43  40  89 S6        30.28S
WASHINGTON *   CLEAR     39  39 100 S5        30.29F
$$

ABBREVIATIONS USED IN REMARKS
   TC - TEMPERATURES IN CELSIUS
  WCI - WIND CHILL INDEX
   HX - HEAT INDEX
  VSB - VISIBILITY
$$



USA.gov is the U.S. government's official web portal to all federal, state and local government web resources and services.